DW5785 Weather Reports


Display with metric or nautical units.
time (UTC)temp
F
wind
direction
speed
MPH
gust
MPH
rain 1hr
in
rain 24hr
in
rain mn
in
humidity
%
barometer
mb
20260508205013 48 282 1.0 6.0 0.00 0.00 0.00 86 1020.3
20260508204510 48 287 3.0 5.0 0.00 0.00 0.00 86 1020.3
20260508204010 48 273 3.0 5.0 0.00 0.00 0.00 86 1020.3
20260508203513 49 282 3.0 6.0 0.00 0.00 0.00 86 1020.3
20260508203010 49 264 4.0 5.0 0.00 0.00 0.00 85 1020.2
20260508202521 49 292 2.0 6.0 0.00 0.00 0.00 85 1020.2
20260508202019 49 297 3.0 7.0 0.00 0.00 0.00 85 1020.2
20260508201510 49 263 4.0 7.0 0.00 0.00 0.00 85 1020.2
20260508201013 49 251 5.0 7.0 0.00 0.00 0.00 85 1020.2
20260508200510 49 277 5.0 6.0 0.00 0.00 0.00 84 1020.1
20260508200010 49 277 5.0 7.0 0.00 0.00 0.00 84 1020.2
20260508195512 49 287 4.0 9.0 0.00 0.00 0.00 84 1020.1
20260508195010 49 266 3.0 8.0 0.00 0.00 0.00 84 1020.0
20260508194510 50 312 5.0 7.0 0.00 0.00 0.00 84 1020.0
20260508194016 50 287 3.0 8.0 0.00 0.00 0.00 84 1020.0
20260508193510 50 267 4.0 8.0 0.00 0.00 0.00 83 1019.9
20260508193013 50 310 6.0 8.0 0.00 0.00 0.00 83 1019.9
20260508192518 50 258 6.0 7.0 0.00 0.00 0.00 83 1019.8
20260508192010 50 282 5.0 7.0 0.00 0.00 0.00 83 1019.8
20260508191513 50 277 2.0 8.0 0.00 0.00 0.00 82 1019.7
20260508191010 51 297 3.0 9.0 0.00 0.00 0.00 82 1019.7
20260508190510 51 287 4.0 9.0 0.00 0.00 0.00 81 1019.7
20260508190010 51 266 6.0 9.0 0.00 0.00 0.00 81 1019.6
20260508185512 51 277 6.0 10.0 0.00 0.00 0.00 81 1019.5
20260508185016 51 310 5.0 8.0 0.00 0.00 0.00 80 1019.4
20260508184510 52 273 4.0 7.0 0.00 0.00 0.00 80 1019.3
20260508184013 52 293 3.0 7.0 0.00 0.00 0.00 80 1019.2
20260508183516 52 305 5.0 7.0 0.00 0.00 0.00 79 1019.2
20260508183016 52 301 5.0 10.0 0.00 0.00 0.00 79 1019.2
20260508182512 52 271 5.0 9.0 0.00 0.00 0.00 78 1019.1
20260508182010 53 268 7.0 9.0 0.00 0.00 0.00 78 1018.9
20260508181519 53 287 8.0 13.0 0.00 0.00 0.00 77 1018.8
20260508181011 53 257 4.0 12.0 0.00 0.00 0.00 77 1018.8
20260508180510 54 292 5.0 10.0 0.00 0.00 0.00 76 1018.7
20260508180016 54 310 6.0 11.0 0.00 0.00 0.00 76 1018.7
20260508175512 54 261 4.0 11.0 0.00 0.00 0.00 76 1018.7
20260508175010 54 292 7.0 12.0 0.00 0.00 0.00 75 1018.7
20260508174513 54 305 4.0 11.0 0.00 0.00 0.00 74 1018.8
20260508174010 55 267 5.0 9.0 0.00 0.00 0.00 74 1018.7
20260508173510 55 314 5.0 9.0 0.00 0.00 0.00 73 1018.6
20260508173016 55 310 5.0 11.0 0.00 0.00 0.00 72 1018.6
20260508172515 55 287 7.0 10.0 0.00 0.00 0.00 71 1018.5
20260508172020 55 311 5.0 9.0 0.00 0.00 0.00 70 1018.5
20260508171510 56 331 3.0 10.0 0.00 0.00 0.00 70 1018.5
20260508171010 56 277 4.0 11.0 0.00 0.00 0.00 69 1018.5
20260508170516 56 287 4.0 8.0 0.00 0.00 0.00 69 1018.4
20260508170013 56 318 2.0 10.0 0.00 0.00 0.00 68 1018.4
20260508165515 56 310 7.0 9.0 0.00 0.00 0.00 68 1018.4
20260508165013 56 312 3.0 6.0 0.00 0.00 0.00 69 1018.5
20260508164516 56 299 2.0 9.0 0.00 0.00 0.00 68 1018.5
20260508164013 56 310 7.0 9.0 0.00 0.00 0.00 67 1018.4
20260508163510 56 104 2.0 7.0 0.00 0.00 0.00 67 1018.4
20260508163010 56 302 5.0 8.0 0.00 0.00 0.00 67 1018.4
20260508162518 56 23 4.0 8.0 0.00 0.00 0.00 67 1018.4
20260508162013 56 287 4.0 8.0 0.00 0.00 0.00 68 1018.3
20260508161510 56 297 5.0 8.0 0.00 0.00 0.00 68 1018.3
20260508161010 57 303 7.0 8.0 0.00 0.00 0.00 69 1018.4
20260508160513 56 183 2.0 7.0 0.00 0.00 0.00 70 1018.3
20260508160013 56 282 4.0 8.0 0.00 0.00 0.00 70 1018.4
20260508155512 56 293 2.0 8.0 0.00 0.00 0.00 70 1018.4
20260508155013 56 287 6.0 8.0 0.00 0.00 0.00 70 1018.4
20260508154516 56 309 5.0 9.0 0.00 0.00 0.00 69 1018.5
20260508154013 56 305 3.0 9.0 0.00 0.00 0.00 68 1018.4
20260508153510 57 277 5.0 12.0 0.00 0.00 0.00 68 1018.4
20260508153010 57 282 4.0 10.0 0.00 0.00 0.00 67 1018.3
20260508152515 57 316 6.0 8.0 0.00 0.00 0.00 67 1018.4
20260508152010 57 277 4.0 8.0 0.00 0.00 0.00 67 1018.4
20260508151511 56 261 4.0 9.0 0.00 0.00 0.00 68 1018.4
20260508151016 56 203 2.0 6.0 0.00 0.00 0.00 69 1018.5
20260508150510 56 282 3.0 7.0 0.00 0.00 0.00 68 1018.5
20260508150013 56 300 4.0 6.0 0.00 0.00 0.00 69 1018.5
20260508145518 56 287 4.0 8.0 0.00 0.00 0.00 69 1018.5
20260508145013 56 297 3.0 9.0 0.00 0.00 0.00 68 1018.6
20260508144513 56 287 5.0 9.0 0.00 0.00 0.00 67 1018.6
20260508144016 57 320 6.0 10.0 0.00 0.00 0.00 66 1018.6
20260508143510 57 239 1.0 4.0 0.00 0.00 0.00 66 1018.6
20260508143010 57 301 3.0 9.0 0.00 0.00 0.00 66 1018.6
20260508142512 57 282 3.0 8.0 0.00 0.00 0.00 67 1018.6
20260508142010 57 277 3.0 9.0 0.00 0.00 0.00 69 1018.6
20260508141510 56 316 4.0 9.0 0.00 0.00 0.00 70 1018.6
20260508141010 56 258 2.0 9.0 0.00 0.00 0.00 71 1018.6
20260508140515 55 306 4.0 8.0 0.00 0.00 0.00 71 1018.6
20260508140010 55 243 4.0 7.0 0.00 0.00 0.00 71 1018.7
20260508135513 55 287 5.0 8.0 0.00 0.00 0.00 71 1018.6
20260508135010 55 238 3.0 8.0 0.00 0.00 0.00 72 1018.6
20260508134510 55 261 5.0 8.0 0.00 0.00 0.00 72 1018.6
20260508134013 55 295 5.0 9.0 0.00 0.00 0.00 72 1018.6
20260508133512 55 300 5.0 8.0 0.00 0.00 0.00 72 1018.7
20260508133013 55 305 1.0 8.0 0.00 0.00 0.00 72 1018.7
20260508132510 55 304 3.0 7.0 0.00 0.00 0.00 72 1018.7
20260508132010 55 287 5.0 10.0 0.00 0.00 0.00 73 1018.7
20260508131513 55 310 6.0 9.0 0.00 0.00 0.00 72 1018.7
20260508131010 55 312 3.0 6.0 0.00 0.00 0.00 72 1018.7
20260508130512 55 326 3.0 9.0 0.00 0.00 0.00 72 1018.7
20260508130016 55 310 5.0 8.0 0.00 0.00 0.00 72 1018.6
20260508125513 55 318 5.0 8.0 0.00 0.00 0.00 71 1018.7
20260508125010 55 270 3.0 7.0 0.00 0.00 0.00 71 1018.7
20260508124510 55 299 4.0 5.0 0.00 0.00 0.00 71 1018.6
20260508124010 55 322 3.0 7.0 0.00 0.00 0.00 72 1018.6
20260508123512 55 356 3.0 7.0 0.00 0.00 0.00 72 1018.6
20260508123013 55 326 4.0 10.0 0.00 0.00 0.00 70 1018.6
20260508122513 56 314 3.0 6.0 0.00 0.00 0.00 70 1018.5
20260508122010 56 293 5.0 13.0 0.00 0.00 0.00 70 1018.5
20260508121510 56 28 1.0 10.0 0.00 0.00 0.00 70 1018.5
20260508121010 55 8 10.0 10.0 0.00 0.00 0.00 71 1018.4
20260508120515 55 341 6.0 11.0 0.00 0.00 0.00 71 1018.5
20260508120016 56 337 7.0 10.0 0.00 0.00 0.00 69 1018.5
20260508115510 56 78 2.0 5.0 0.00 0.00 0.00 71 1018.5
20260508115010 55 329 6.0 7.0 0.00 0.00 0.00 71 1018.5
20260508114516 55 292 3.0 9.0 0.00 0.00 0.00 71 1018.5
20260508114010 55 232 1.0 6.0 0.00 0.00 0.00 73 1018.5
20260508113512 55 324 1.0 6.0 0.00 0.00 0.00 72 1018.6
20260508113010 55 268 2.0 10.0 0.00 0.00 0.00 72 1018.5
20260508112510 55 282 2.0 8.0 0.00 0.00 0.00 72 1018.5
20260508112010 55 282 4.0 7.0 0.00 0.00 0.00 72 1018.5
20260508111510 55 303 5.0 7.0 0.00 0.00 0.00 72 1018.5
20260508111016 54 212 3.0 7.0 0.00 0.00 0.00 72 1018.5
20260508110512 55 226 1.0 8.0 0.00 0.00 0.00 72 1018.5
20260508110010 54 282 5.0 5.0 0.00 0.00 0.00 74 1018.5
20260508105510 54 313 2.0 10.0 0.00 0.00 0.00 74 1018.5
20260508105010 54 299 2.0 9.0 0.00 0.00 0.00 74 1018.5
20260508104510 54 306 4.0 9.0 0.00 0.00 0.00 74 1018.5
20260508104016 54 306 2.0 11.0 0.00 0.00 0.00 74 1018.5
20260508103515 54 250 5.0 6.0 0.00 0.00 0.00 73 1018.5
20260508103016 54 237 5.0 9.0 0.00 0.00 0.00 73 1018.6
20260508102510 54 282 5.0 8.0 0.00 0.00 0.00 74 1018.6
20260508102010 54 297 4.0 8.0 0.00 0.00 0.00 74 1018.5
20260508101510 53 206 4.0 8.0 0.00 0.00 0.00 74 1018.6
20260508101010 53 185 3.0 6.0 0.00 0.00 0.00 75 1018.6
20260508100515 53 224 3.0 9.0 0.00 0.00 0.00 75 1018.6
20260508100016 53 293 5.0 8.0 0.00 0.00 0.00 76 1018.4
20260508095510 53 193 5.0 9.0 0.00 0.00 0.00 75 1018.6
20260508095010 53 223 2.0 10.0 0.00 0.00 0.00 75 1018.7
20260508094513 53 345 4.0 8.0 0.00 0.00 0.00 76 1018.7
20260508094010 53 214 3.0 9.0 0.00 0.00 0.00 76 1018.6
20260508093515 53 313 9.0 9.0 0.00 0.00 0.00 75 1018.6
20260508093013 53 282 4.0 9.0 0.00 0.00 0.00 77 1018.7
20260508092510 52 206 1.0 10.0 0.00 0.00 0.00 79 1018.7
20260508092016 52 221 3.0 5.0 0.00 0.00 0.00 79 1018.7
20260508091513 52 299 4.0 6.0 0.00 0.00 0.00 79 1018.7
20260508091013 51 236 3.0 8.0 0.00 0.00 0.00 78 1018.7
20260508090515 52 272 3.0 7.0 0.00 0.00 0.00 80 1018.7
20260508090010 52 235 6.0 8.0 0.00 0.00 0.00 79 1018.6
20260508085519 52 253 3.0 7.0 0.00 0.00 0.00 79 1018.6
20260508085010 52 287 5.0 5.0 0.00 0.00 0.00 79 1018.6
20260508084510 52 268 4.0 5.0 0.00 0.00 0.00 79 1018.6
20260508084010 52 277 3.0 6.0 0.00 0.00 0.00 80 1018.5
20260508083512 51 248 1.0 7.0 0.00 0.00 0.00 80 1018.4
20260508083013 51 287 3.0 8.0 0.00 0.00 0.00 81 1018.4
20260508082510 51 277 4.0 7.0 0.00 0.00 0.00 81 1018.4
20260508082016 51 291 4.0 6.0 0.00 0.00 0.00 81 1018.4
20260508081510 51 223 3.0 6.0 0.00 0.00 0.00 81 1018.4
20260508081013 51 205 3.0 6.0 0.00 0.00 0.00 81 1018.5
20260508080515 51 236 5.0 6.0 0.00 0.00 0.00 82 1018.3
20260508080010 51 262 2.0 6.0 0.00 0.00 0.00 83 1018.3
20260508075510 50 211 1.0 5.0 0.00 0.00 0.00 84 1018.3
20260508075010 49 207 1.0 5.0 0.00 0.00 0.00 84 1018.4
20260508074513 49 205 5.0 6.0 0.00 0.00 0.00 84 1018.4
20260508074010 49 103 1.0 6.0 0.00 0.00 0.00 85 1018.3
20260508073512 49 214 5.0 7.0 0.00 0.00 0.00 84 1018.2
20260508073010 49 266 1.0 5.0 0.00 0.00 0.00 84 1018.2
20260508072513 49 282 3.0 6.0 0.00 0.00 0.00 85 1018.2
20260508072013 49 282 3.0 6.0 0.00 0.00 0.00 85 1018.1
20260508071513 49 188 2.0 4.0 0.00 0.00 0.00 85 1018.1
20260508071013 49 266 2.0 6.0 0.00 0.00 0.00 86 1018.0
20260508070512 49 282 4.0 5.0 0.00 0.00 0.00 86 1018.0
20260508070010 48 291 4.0 6.0 0.00 0.00 0.00 86 1017.9
20260508065516 48 233 5.0 7.0 0.00 0.00 0.00 87 1017.9
20260508065013 48 295 3.0 5.0 0.00 0.00 0.00 86 1017.9
20260508064510 48 223 1.0 5.0 0.00 0.00 0.00 87 1017.8
20260508064019 48 282 2.0 7.0 0.00 0.00 0.00 87 1017.8
20260508063515 48 287 4.0 7.0 0.00 0.00 0.00 87 1017.8
20260508063010 48 287 4.0 6.0 0.00 0.00 0.00 87 1017.8
20260508062510 48 268 5.0 8.0 0.00 0.00 0.00 87 1017.7
20260508062016 48 243 4.0 7.0 0.00 0.00 0.00 88 1017.7
20260508061513 47 299 3.0 6.0 0.00 0.00 0.00 88 1017.7
20260508061010 47 287 3.0 6.0 0.00 0.00 0.00 88 1017.6
20260508060515 47 304 5.0 8.0 0.00 0.00 0.00 88 1017.6
20260508060019 47 239 4.0 8.0 0.00 0.00 0.00 88 1017.5
20260508055510 47 259 4.0 8.0 0.00 0.00 0.00 88 1017.5
20260508055010 47 291 4.0 7.0 0.00 0.00 0.00 89 1017.5
20260508054513 47 268 5.0 10.0 0.00 0.00 0.00 89 1017.3
20260508054013 46 287 7.0 11.0 0.00 0.00 0.00 89 1017.3
20260508053515 46 239 5.0 10.0 0.00 0.00 0.00 89 1017.3
20260508053013 46 337 5.0 10.0 0.00 0.00 0.00 89 1017.3
20260508052516 47 177 4.0 8.0 0.00 0.00 0.00 90 1017.3
20260508052016 47 282 3.0 9.0 0.00 0.00 0.00 90 1017.3
20260508051510 47 297 4.0 9.0 0.00 0.00 0.00 91 1017.3
20260508051016 47 287 4.0 5.0 0.00 0.00 0.00 91 1017.3
20260508050518 47 296 5.0 7.0 0.00 0.00 0.00 91 1017.2
20260508050010 47 213 3.0 5.0 0.00 0.00 0.00 91 1017.1
20260508045510 47 287 3.0 4.0 0.00 0.00 0.00 91 1017.2
20260508045016 46 287 3.0 6.0 0.00 0.00 0.00 92 1017.1
20260508044510 46 254 4.0 7.0 0.00 0.00 0.00 92 1017.1
20260508044010 46 272 2.0 6.0 0.00 0.00 0.00 92 1017.1
20260508043512 46 298 3.0 5.0 0.00 0.00 0.00 92 1017.0
20260508043013 46 264 3.0 4.0 0.00 0.00 0.00 92 1017.1
20260508042510 46 277 4.0 6.0 0.00 0.00 0.00 92 1017.0
20260508042013 46 214 3.0 5.0 0.00 0.00 0.00 92 1017.0
20260508041510 46 277 2.0 5.0 0.00 0.00 0.00 92 1017.0
20260508041013 46 251 3.0 6.0 0.00 0.00 0.00 92 1017.0
20260508040515 46 277 2.0 5.0 0.00 0.00 0.00 92 1017.0
20260508040013 46 268 2.0 5.0 0.00 0.00 0.00 92 1017.0
20260508035510 46 190 1.0 5.0 0.00 0.00 0.00 92 1016.9
20260508035016 46 251 2.0 6.0 0.00 0.00 0.00 91 1017.0
20260508034513 46 253 2.0 4.0 0.00 0.00 0.00 92 1017.0
20260508034016 46 258 3.0 5.0 0.00 0.00 0.00 91 1016.8
20260508033512 46 251 3.0 7.0 0.00 0.00 0.00 91 1016.8
20260508033010 46 266 2.0 6.0 0.00 0.00 0.00 91 1016.8
20260508032510 46 266 4.0 6.0 0.00 0.00 0.00 92 1016.8
20260508032010 46 220 2.0 5.0 0.00 0.00 0.00 92 1016.8
20260508031510 46 229 3.0 6.0 0.00 0.00 0.00 92 1016.8
20260508031013 46 227 2.0 5.0 0.00 0.00 0.00 92 1016.7
20260508030512 46 261 2.0 5.0 0.00 0.00 0.00 92 1016.7
20260508030010 46 277 2.0 5.0 0.00 0.00 0.00 92 1016.7
20260508025510 46 230 3.0 6.0 0.00 0.00 0.00 91 1016.7
20260508025013 46 268 3.0 7.0 0.00 0.00 0.00 92 1016.7
20260508024510 46 224 5.0 8.0 0.00 0.00 0.00 92 1016.7
20260508024016 46 253 1.0 7.0 0.00 0.00 0.00 92 1016.6
20260508023518 46 282 7.0 8.0 0.00 0.00 0.00 92 1016.6
20260508023010 46 271 4.0 8.0 0.00 0.00 0.00 92 1016.7
20260508022510 46 251 4.0 7.0 0.00 0.00 0.00 92 1016.7
20260508022016 46 282 4.0 7.0 0.00 0.00 0.00 92 1016.7
20260508021517 46 237 3.0 8.0 0.00 0.00 0.00 92 1016.7
20260508021016 46 239 4.0 8.0 0.00 0.00 0.00 92 1016.7
20260508020518 46 262 4.0 7.0 0.00 0.00 0.00 92 1016.7
20260508020010 46 249 2.0 9.0 0.00 0.00 0.00 92 1016.6
20260508015513 46 243 1.0 7.0 0.00 0.00 0.00 92 1016.7
20260508015010 46 260 3.0 9.0 0.00 0.00 0.00 92 1016.7
20260508014510 46 249 7.0 9.0 0.00 0.00 0.00 92 1016.7
20260508014013 46 293 3.0 8.0 0.00 0.00 0.00 92 1016.7
20260508013512 46 263 5.0 10.0 0.00 0.00 0.00 92 1016.6
20260508013013 46 258 7.0 10.0 0.00 0.00 0.00 92 1016.6
20260508012513 46 282 5.0 10.0 0.00 0.00 0.00 92 1016.5
20260508012010 47 213 7.0 12.0 0.00 0.00 0.00 92 1016.5
20260508011510 47 261 5.0 10.0 0.00 0.00 0.00 92 1016.6
20260508011010 47 282 6.0 9.0 0.00 0.00 0.00 91 1016.6
20260508010512 47 233 4.0 9.0 0.00 0.00 0.00 91 1016.5
20260508010010 47 243 5.0 9.0 0.00 0.00 0.00 92 1016.6
20260508005519 47 282 4.0 8.0 0.00 0.00 0.00 92 1016.6
20260508005013 47 247 4.0 9.0 0.00 0.00 0.00 92 1016.5
20260508004513 47 282 5.0 10.0 0.00 0.00 0.00 91 1016.6
20260508004016 47 218 4.0 6.0 0.00 0.00 0.00 91 1016.5
20260508003512 47 258 6.0 8.0 0.00 0.00 0.00 91 1016.6
20260508003013 47 282 6.0 7.0 0.00 0.00 0.00 91 1016.6
20260508002510 47 282 4.0 10.0 0.00 0.00 0.00 91 1016.6
20260508002010 47 272 5.0 6.0 0.00 0.00 0.00 91 1016.7
20260508001513 48 262 2.0 8.0 0.00 0.00 0.00 91 1016.7
20260508001016 48 247 6.0 7.0 0.00 0.00 0.00 91 1016.8
20260508000518 48 282 5.0 9.0 0.00 0.00 0.00 91 1016.9
20260508000010 48 254 6.0 7.0 0.00 0.00 0.00 91 1016.9
20260507235516 48 182 3.0 6.0 0.00 0.00 0.00 91 1016.9
20260507235019 48 282 3.0 7.0 0.00 0.00 0.00 91 1016.9
20260507234510 48 264 2.0 6.0 0.00 0.00 0.00 91 1016.9
20260507234019 48 240 3.0 5.0 0.00 0.00 0.00 91 1016.8
20260507233518 48 242 2.0 5.0 0.00 0.00 0.00 91 1016.9
20260507233013 48 261 3.0 5.0 0.00 0.00 0.00 91 1016.8
20260507232519 48 230 5.0 6.0 0.00 0.00 0.00 91 1016.8
20260507232010 48 254 2.0 5.0 0.00 0.00 0.00 91 1016.9
20260507231510 48 257 3.0 7.0 0.00 0.00 0.00 90 1016.9
20260507231010 48 260 3.0 5.0 0.00 0.00 0.00 90 1016.8
20260507230518 48 250 4.0 7.0 0.00 0.00 0.00 90 1016.8
20260507230010 48 244 3.0 6.0 0.00 0.00 0.00 90 1016.9
20260507225510 48 238 4.0 8.0 0.00 0.00 0.00 90 1017.0
20260507225010 48 255 4.0 6.0 0.00 0.00 0.00 90 1016.9
20260507224510 48 199 4.0 5.0 0.00 0.00 0.00 90 1016.9
20260507224010 48 228 2.0 8.0 0.00 0.00 0.00 90 1016.9
20260507223512 48 226 8.0 9.0 0.00 0.00 0.00 90 1016.8
20260507223013 48 277 5.0 10.0 0.00 0.00 0.00 90 1016.7
20260507222513 48 330 3.0 8.0 0.00 0.00 0.00 90 1016.7
20260507222010 48 248 5.0 10.0 0.00 0.00 0.00 90 1016.7
20260507221510 48 245 5.0 8.0 0.00 0.00 0.00 90 1016.8
20260507221010 48 282 3.0 8.0 0.00 0.00 0.00 90 1016.8
20260507220512 49 251 3.0 7.0 0.00 0.00 0.00 90 1016.9
20260507220013 48 291 4.0 9.0 0.00 0.00 0.00 90 1016.9
20260507215510 48 282 4.0 11.0 0.00 0.00 0.00 90 1016.8
20260507215013 49 287 7.0 9.0 0.00 0.00 0.00 91 1016.7
20260507214510 48 282 4.0 9.0 0.00 0.00 0.00 91 1016.6
20260507214010 49 291 4.0 8.0 0.00 0.00 0.00 91 1016.6
20260507213512 49 287 4.0 7.0 0.00 0.00 0.00 91 1016.6
20260507213013 49 287 7.0 9.0 0.00 0.00 0.00 91 1016.5
20260507212510 49 247 3.0 11.0 0.00 0.00 0.00 91 1016.4
20260507212013 49 260 10.0 10.0 0.00 0.00 0.00 91 1016.4
20260507211510 49 282 5.0 9.0 0.00 0.01 0.00 91 1016.4
20260507211010 49 264 5.0 8.0 0.00 0.02 0.00 91 1016.4
20260507210515 49 213 4.0 8.0 0.00 0.03 0.00 91 1016.4
20260507210016 49 222 5.0 11.0 0.00 0.06 0.00 91 1016.3
20260507205510 49 315 4.0 8.0 0.00 0.07 0.00 91 1016.2